Lid_Strength_Index
3 3 2 2 2 2 2 1 1 1 1 2 2 3 2 2 1 1 1 -2 2 5 4 3 3 4 5 5 7 6 8 6 7 9 9 9 10 9 10 9 10 10 12 12 11 12 16 7 7 9 8 5 5 5
3 3 3 2 2 2 2 1 1 1 1 1 2 2 2 2 2 1 2 -1 -1 3 4 1 1 1 2 2 4 4 5 6 6 9 9 8 11 11 11 13 7 11 9 12 10 11 7 5 6 4 4 5 5 5
3 3 3 3 2 2 1 1 2 2 1 1 2 2 2 2 1 1 1 -0 1 4 4 3 3 1 0 0 1 5 5 4 5 4 7 9 12 10 14 12 9 7 6 9 9 8 7 5 4 3 3 4 3 3
3 3 3 3 2 2 1 1 1 2 1 1 2 2 2 2 1 1 1 0 1 3 6 4 1 2 0 0 1 1 2 2 3 4 6 8 10 8 10 8 8 7 6 7 8 6 5 4 4 3 3 3 3 3
4 4 3 3 3 2 2 1 1 2 1 2 2 1 2 2 1 1 0 0 -0 3 7 6 2 1 1 1 1 1 1 3 4 6 6 7 6 6 6 7 7 5 7 9 10 6 6 5 4 3 3 3 3 3
4 4 4 4 3 3 2 2 2 1 1 2 1 1 2 2 2 2 4 1 -0 0 5 7 2 3 1 1 2 2 2 3 4 5 6 5 4 6 8 11 8 5 5 4 6 4 4 3 3 2 3 3 2 2
4 4 4 4 4 4 3 3 2 2 2 2 1 1 2 2 2 4 4 2 2 -0 4 6 6 3 2 2 3 3 2 3 4 5 5 5 5 5 7 9 8 4 4 3 3 3 4 3 4 2 2 2 2 2
3 3 3 4 4 4 3 2 1 1 1 1 1 2 2 1 2 3 1 1 1 2 3 6 6 5 2 5 6 3 4 4 4 5 5 5 5 5 8 5 4 4 4 4 3 3 3 2 2 2 2 2 3 3
3 3 3 3 3 3 3 2 1 1 1 1 1 1 1 1 3 1 1 2 -0 2 6 6 7 9 3 4 4 4 3 7 4 6 5 5 6 8 5 5 4 4 4 4 3 3 3 3 3 3 3 3 3 3
3 3 3 3 2 3 3 2 1 1 1 1 2 2 5 2 1 1 2 4 3 3 3 6 4 7 4 4 6 5 5 7 9 6 4 7 7 4 4 4 4 4 3 3 4 4 4 4 3 3 3 3 3 3
2 3 3 3 3 2 3 2 1 1 2 3 4 4 1 1 2 3 6 6 5 7 5 5 4 6 2 6 7 5 6 7 10 8 8 8 8 6 3 4 3 3 3 2 3 2 2 3 3 3 3 3 2 2
1 2 2 2 2 2 2 2 1 2 3 3 2 1 2 3 5 7 8 6 7 8 5 6 5 4 4 3 8 7 7 7 10 6 8 10 7 5 4 4 3 3 2 3 2 3 3 2 2 2 2 2 2 2
1 0 2 2 2 2 2 2 1 2 2 0 2 4 5 5 11 10 11 9 8 5 4 4 6 4 4 4 6 6 10 9 6 8 9 7 6 4 4 3 3 2 2 2 2 2 2 2 2 2 2 2 2 2
0 1 1 2 2 2 2 2 1 1 2 4 6 11 8 9 7 7 7 6 4 4 4 4 5 5 4 6 6 9 7 7 11 11 10 8 5 4 3 3 3 3 3 3 3 2 2 2 2 2 2 2 2 3
-0 0 1 1 2 1 2 1 1 1 2 6 5 10 8 5 5 4 4 4 3 3 4 5 5 5 6 7 6 7 9 10 9 9 9 6 5 4 3 3 3 3 3 3 2 3 2 2 2 2 2 2 2 2
-0 0 1 1 1 1 1 1 1 0 2 4 5 6 5 6 5 5 4 4 3 3 3 4 6 8 8 7 8 8 9 10 9 7 5 4 4 4 3 3 3 2 2 2 3 3 2 2 3 2 2 2 2 2
0 1 1 1 1 1 1 1 2 4 5 5 6 3 4 5 5 4 4 4 2 4 7 5 8 9 6 8 8 7 8 8 6 6 5 4 4 3 3 3 3 2 2 3 2 2 2 2 2 3 3 2 2 1
1 0 1 1 0 1 2 1 3 4 6 5 6 4 4 4 5 4 3 3 3 4 5 7 5 9 9 9 8 7 6 4 4 5 4 3 3 3 2 3 2 2 3 2 2 3 2 3 3 3 2 2 2 1
1 1 1 1 0 1 4 3 3 7 5 4 4 3 4 3 3 3 2 2 2 2 4 5 7 8 7 6 5 5 5 4 5 4 4 3 2 2 2 2 2 2 2 2 2 3 3 2 2 2 2 2 2 2
1 1 0 0 -1 1 4 4 1 5 6 5 4 4 4 4 3 4 3 3 3 4 6 6 6 6 5 4 4 4 4 4 3 4 4 3 3 2 2 2 3 2 2 2 2 6 2 2 2 2 2 2 2 3
1 1 0 -0 0 1 3 4 4 4 4 5 4 4 5 4 5 5 4 3 5 5 6 4 4 3 2 2 2 2 3 2 3 4 4 4 3 3 3 3 2 2 3 3 3 3 4 2 2 2 2 2 2 2
0 0 0 0 2 3 4 3 4 3 4 4 4 4 5 6 6 5 3 5 5 5 4 4 3 3 3 3 3 2 2 2 2 2 5 4 3 3 3 3 3 3 3 3 2 2 2 2 2 2 2 2 2 1
0 -1 1 2 5 6 6 3 6 5 7 7 5 7 6 6 5 3 6 5 4 2 2 3 2 2 2 2 2 2 2 2 3 3 3 2 2 2 2 3 3 2 3 2 2 2 2 5 4 2 2 2 2 2
1 2 5 5 5 8 5 7 5 6 6 7 8 10 8 7 4 6 7 5 4 3 3 3 3 3 3 2 3 3 3 2 2 2 1 2 3 3 3 3 2 2 2 1 2 2 2 2 4 2 2 2 2 3
7 7 6 9 5 7 9 9 8 8 9 8 9 8 7 5 8 8 8 5 4 4 3 3 3 3 4 3 3 3 1 2 3 3 3 1 2 3 3 2 2 2 1 2 3 2 2 2 3 2 2 2 3 3
10 6 8 8 7 8 8 9 9 9 8 8 8 6 6 7 9 9 6 5 4 4 3 3 4 4 4 3 3 3 2 1 1 3 2 1 2 2 3 4 3 3 2 1 2 2 3 2 2 2 2 4 8 3
10 8 5 3 5 6 7 7 6 7 8 8 7 7 8 10 9 6 4 3 3 2 2 2 2 3 3 3 3 2 2 1 2 2 1 1 1 2 2 3 3 2 1 1 1 2 3 3 2 2 3 3 3 2
6 5 7 6 6 5 7 7 8 8 7 5 6 8 9 9 8 4 3 2 2 2 1 2 2 2 2 2 1 1 1 1 1 1 1 1 2 1 1 1 1 6 1 1 2 2 2 2 2 2 3 3 3 2
6 4 4 6 6 6 6 7 7 5 3 5 7 7 6 4 3 3 2 2 1 2 3 4 2 1 1 1 1 1 1 2 3 4 5 5 4 3 2 2 2 1 2 2 10 7 2 2 2 2 2 3 2 2
5 4 6 6 8 9 6 5 5 3 3 4 4 4 4 3 2 1 2 2 2 2 2 1 1 2 2 3 3 2 1 1 1 3 5 5 4 2 2 2 2 2 2 2 2 3 10 5 6 3 3 3 3 3
4 4 5 6 7 5 4 3 3 3 3 4 3 5 5 4 2 1 1 1 2 2 2 2 2 2 2 2 3 3 4 2 1 2 3 2 2 2 2 2 1 1 2 2 2 3 4 4 4 4 4 4 3 4
4 5 5 7 6 4 3 4 4 5 4 4 5 4 4 4 5 3 2 2 3 3 5 3 2 2 2 2 2 2 8 2 2 2 2 1 2 2 2 2 2 2 2 2 3 3 3 4 4 4 4 3 3 3
4 4 4 5 5 5 4 4 5 5 5 5 5 4 4 5 6 3 1 0 1 2 2 1 1 1 1 2 2 2 6 3 4 10 10 11 12 10 6 3 2 2 1 2 3 3 3 3 4 3 3 3 3 3